[[{"header":{"parameterUnit":"m.s-1","parameterCategory":1,"la1":30.2991,"la2":30.254,"lo1":-89.0895,"lo2":-89.0444,"dy":0.0017,"dx":0.0017,"nx":28,"ny":28,"refTime":"2023-11-15T03:00:00:Z","depth":0,"parameterNumber":2,"parameterNumberName":"U-component_of_WINDS"},"data":[0,0,0,0,0,0,0,0,0,0,0,0,0,0,0,0,0,0,0,0,0,0,0,0,0,0,0,0,0,0,0,0,0,0,0,0,0,0,0,0,0,0,0,0,0,0,0,0,0,0,0,0,0,0,0,0,0,0,-3.7128,-3.7131,0,-3.74,-3.7403,-3.7406,-3.7437,-3.7434,-3.7431,-3.7428,-3.7711,-3.7721,-3.7731,0,0,0,0,0,0,0,0,0,0,0,0,0,-3.6638,-3.6647,-3.7128,-3.7131,-3.7135,-3.74,-3.7403,-3.7407,-3.7437,-3.7434,-3.743,-3.7427,-3.7708,-3.7719,-3.7731,0,0,0,0,0,0,0,0,0,0,0,0,0,-3.6875,-3.665,-3.7127,-3.7181,-3.7189,-3.7399,-3.7403,-3.7408,-3.7438,-3.7434,-3.7429,-3.7426,-3.7704,-3.7718,-3.7733,-3.7909,0,0,-3.7779,-3.7786,0,0,0,0,0,0,0,0,-3.6861,-3.6893,-3.717,-3.7178,-3.7187,-3.738,-3.7334,-3.7576,-3.7439,-3.7343,-3.7428,-3.7424,-3.7604,-3.7627,-3.7688,-3.7922,-3.7934,-3.7781,-3.779,-3.7796,-3.7801,0,0,0,0,0,0,0,-3.6845,-3.6881,-3.7236,-3.7174,-3.7184,-3.7194,-3.7223,-3.738,-3.7494,-3.7351,-3.7354,-3.7386,-3.7608,-3.7673,-3.7694,-3.7938,-3.778,-3.7794,-3.7803,-3.7809,-3.8333,-3.8338,0,0,0,0,0,0,-3.6818,-3.6867,-3.7227,-3.7244,-3.701,-3.7206,-3.7238,-3.7322,-3.7492,-3.7514,-3.7389,-3.7386,-3.7649,-3.7677,-3.7704,-3.7924,-3.7796,-3.781,-3.7819,-3.8329,-3.8334,-3.834,0,0,0,0,0,0,-3.6807,-3.685,-3.7216,-3.7057,-3.7104,-3.7218,-3.7313,-3.733,-3.7395,-3.7521,-3.7541,-3.7434,-3.7647,-3.7683,-3.7858,-3.7934,-3.7817,-3.7831,-3.8323,-3.833,-3.8337,-3.8361,0,0,0,0,0,0,-3.6793,-3.6846,-3.6912,-3.7058,-3.7112,-3.7364,-3.7317,-3.7338,-3.742,-3.7419,-3.7568,-3.7589,-3.7647,-3.7835,-3.7873,-3.7952,-3.7843,-3.8317,-3.8326,-3.8335,-3.8354,-3.8369,-3.8381,0,0,0,0,0,-3.6775,-3.6909,-3.6916,-3.6959,-3.7198,-3.7368,-3.7399,-3.7462,-3.7426,-3.7495,-3.7576,-3.7584,-3.7919,-3.7853,-3.7896,-3.7981,-3.8312,-3.8323,-3.8334,-3.8348,-3.8366,-3.838,0,0,0,0,0,0,-3.677,-3.6929,-3.6938,-3.7122,-3.7231,-3.7373,-3.7462,-3.7478,-3.76,-3.7594,-3.7667,-3.7701,-3.7873,-3.7944,-3.7868,-3.8161,-3.8112,-3.8132,-3.8108,-3.8126,-3.8139,-3.8119,-3.7855,0,0,0,0,0,-3.679,-3.6914,-3.7046,-3.7196,-3.725,-3.7346,-3.7423,-3.7461,-3.7578,-3.7625,-3.7718,-3.7832,-3.7964,-3.8048,-3.8176,-3.8364,-3.8399,-3.8444,-3.8457,-3.8467,-3.8484,-3.8592,-3.8614,-3.8376,-3.8376,-3.8375,0,0,-3.6833,-3.6935,-3.7009,-3.7197,-3.7286,-3.7415,-3.7385,-3.7521,-3.7618,-3.7646,-3.7817,-3.789,-3.8022,-3.8205,-3.829,-3.827,-3.8557,-3.8481,-3.8488,-3.85,-3.8605,-3.8628,-3.8648,-3.8383,-3.8382,-3.8381,0,0,-3.6978,-3.7066,-3.7202,-3.7292,-3.7427,-3.749,-3.7523,-3.7663,-3.7712,-3.7884,-3.7909,-3.8025,-3.8248,-3.8342,-3.8419,-3.86,-3.8613,-3.864,-3.8709,-3.8813,-3.8832,-3.8849,-3.8916,-3.8939,-3.8656,-3.8656,-3.8656,0,-3.7015,-3.7208,-3.727,-3.7406,-3.7489,-3.7519,-3.7658,-3.7743,-3.7913,-3.797,-3.7944,-3.8226,-3.8317,-3.8524,-3.8568,-3.8628,-3.867,-3.8624,-3.8824,-3.8842,-3.8859,-3.8924,-3.8948,-3.8658,-3.8658,-3.8658,-3.8658,0,-3.7248,-3.7381,-3.7475,-3.7638,-3.7731,-3.7868,-3.7952,-3.804,-3.807,-3.8137,-3.8314,-3.8424,-3.8575,-3.8626,-3.8657,-3.8838,-3.8822,-3.8809,-3.8762,-3.8883,-3.8945,-3.897,-3.8662,-3.8661,-3.866,-3.866,0,0,-3.7398,-3.7593,-3.7627,-3.7702,-3.7854,-3.7959,-3.8098,-3.8245,-3.832,-3.8436,-3.8556,-3.8745,-3.8735,-3.8822,-3.8864,-3.8955,-3.9094,-3.8932,-3.8936,-3.896,-3.9304,-3.9314,-3.9341,-3.9103,-3.9108,-3.9112,-3.9293,0,-3.7561,-3.7809,-3.7869,-3.8082,-3.8207,-3.8238,-3.8359,-3.8466,-3.8532,-3.865,-3.8723,-3.8857,-3.8831,-3.8885,-3.8976,-3.9058,-3.9165,-3.9045,-3.9218,-3.9223,-3.9186,-3.9374,-3.9385,-3.9551,-3.9318,-3.9322,-3.9325,0,-3.7786,-3.7907,-3.8131,-3.8268,-3.8323,-3.8431,-3.8572,-3.8683,-3.8806,-3.8848,-3.8945,-3.8979,-3.9127,-3.907,-3.9277,-3.9194,-3.9268,-3.9319,-3.9327,-3.9348,-3.9283,-3.9401,-3.9605,-3.963,-3.9363,-3.936,-3.9358,0,-3.7875,-3.8094,-3.8258,-3.8321,-3.8484,-3.856,-3.8632,-3.875,-3.8835,-3.8958,-3.9015,-3.9153,-3.923,-3.9338,-3.9408,-3.936,-3.961,-3.9559,-3.9651,-3.9649,-3.9704,-3.97,-3.9924,-3.9747,-3.9747,-3.9747,-3.9746,0,-3.8053,-3.819,-3.8301,-3.8401,-3.8557,-3.8625,-3.8777,-3.8849,-3.8955,-3.9072,-3.9106,-3.9215,-3.9301,-3.9422,-3.9478,-3.9642,-3.9676,-3.9716,-3.9729,-3.9714,-3.9709,-3.9765,-3.9756,-3.9753,-3.9752,-3.975,-3.9749,0,-3.818,-3.8259,-3.844,-3.858,-3.8618,-3.8726,-3.8847,-3.8947,-3.9013,-3.9161,-3.92,-3.9305,-3.945,-3.9531,-3.9713,-3.9751,-3.9934,-3.9941,-3.9893,-3.9899,-3.9988,-3.9979,-4.0258,-4.0299,-4.0092,-4.0094,-4.0095,0,-3.829,-3.8396,-3.8547,-3.8627,-3.87,-3.8829,-3.8916,-3.8987,-3.9077,-3.9225,-3.9308,-3.9455,-3.9576,-3.9806,-3.9901,-4.0041,-4.0053,-4.014,-4.0074,-4.0056,-4.0057,-4.0051,-4.0063,-4.0153,-4.0155,-4.0156,-4.0157,0,-3.8476,-3.8511,-3.8634,-3.8772,-3.8875,-3.8987,-3.9099,-3.9163,-3.9253,-3.9352,-3.95,-3.9594,-3.978,-3.9926,-4.0074,-4.015,-4.017,-4.0177,-4.0207,-4.0193,-4.0162,-4.0182,-3.9927,-4.0171,-4.017,-4.0169,-4.0168,-4.0167,-3.86,-3.8697,-3.8818,-3.8956,-3.9047,-3.915,-3.9252,-3.9331,-3.9455,-3.9612,-3.9647,-3.9804,-3.9926,-4.0126,-4.0206,-4.0331,-4.0314,-4.0356,-4.0367,-4.0377,-4.0381,-4.0139,-4.0357,-4.0357,-4.0357,-4.0357,-4.0357,0,-3.8791,-3.887,-3.8996,-3.915,-3.9259,-3.9266,-3.939,-3.9481,-3.9618,-3.973,-3.9848,-4.002,-4.0162,-4.0267,-4.0413,-4.0493,-4.0506,-4.0529,-4.0525,-4.0543,-4.0386,-4.0348,-4.0516,-4.0516,-4.0516,-4.0516,-4.0516,-4.0516,-3.8903,-3.9067,-3.9116,-3.9327,-3.9406,-3.9559,-3.963,-3.9726,-3.9816,-4.0005,-4.0123,-4.019,-4.0301,-4.0455,-4.0586,-4.0614,-4.0667,-4.0689,-4.0718,-4.057,-4.0553,-4.0537,-4.0501,-4.0699,-4.07,-4.0864,-4.0866,-4.0867]},{"header":{"parameterUnit":"m.s-1","parameterCategory":1,"la1":30.2991,"la2":30.254,"lo1":-89.0895,"lo2":-89.0444,"dy":0.0017,"dx":0.0017,"nx":28,"ny":28,"refTime":"2023-11-15T03:00:00:Z","depth":0,"parameterNumber":3,"parameterNumberName":"V-component_of_WINDS"},"data":[0,0,0,0,0,0,0,0,0,0,0,0,0,0,0,0,0,0,0,0,0,0,0,0,0,0,0,0,0,0,0,0,0,0,0,0,0,0,0,0,0,0,0,0,0,0,0,0,0,0,0,0,0,0,0,0,0,0,-8.0193,-8.0193,0,-8.0205,-8.0205,-8.0205,-8.0058,-8.0054,-8.005,-8.0047,-8.0056,-8.006,-8.0064,0,0,0,0,0,0,0,0,0,0,0,0,0,-8.0041,-8.0045,-8.0193,-8.0193,-8.0193,-8.0205,-8.0205,-8.0205,-8.0059,-8.0054,-8.0049,-8.0045,-8.0054,-8.0059,-8.0064,0,0,0,0,0,0,0,0,0,0,0,0,0,-8.0085,-8.0046,-8.0193,-8.0122,-8.0116,-8.0205,-8.0205,-8.0205,-8.006,-8.0054,-8.0048,-8.0043,-8.0053,-8.0059,-8.0065,-8.0221,0,0,-8.0083,-8.0085,0,0,0,0,0,0,0,0,-8.0083,-8.0091,-8.0132,-8.0127,-8.012,-8.0124,-8.0154,-8.021,-8.0062,-8.0081,-8.0047,-8.004,-8.0083,-8.0086,-8.0101,-8.0222,-8.0222,-8.0083,-8.0087,-8.0089,-8.0091,0,0,0,0,0,0,0,-8.008,-8.009,-8.0197,-8.0133,-8.0126,-8.0088,-8.0088,-8.0164,-8.0116,-8.0079,-8.0068,-8.0072,-8.0079,-8.0096,-8.0101,-8.0222,-8.0083,-8.0088,-8.0092,-8.0094,-8.0471,-8.0477,0,0,0,0,0,0,-8.0087,-8.0088,-8.0197,-8.0198,-8.0087,-8.0096,-8.0096,-8.0129,-8.0114,-8.0106,-8.0077,-8.0065,-8.0089,-8.0094,-8.01,-8.0283,-8.0089,-8.0095,-8.0098,-8.0465,-8.0472,-8.0479,0,0,0,0,0,0,-8.0084,-8.0098,-8.0197,-8.014,-8.015,-8.0105,-8.0143,-8.0132,-8.0149,-8.0113,-8.0103,-8.0104,-8.0084,-8.0092,-8.0192,-8.0281,-8.0098,-8.0103,-8.0457,-8.0467,-8.0476,-8.065,0,0,0,0,0,0,-8.0081,-8.0098,-8.0158,-8.0143,-8.0154,-8.029,-8.0149,-8.0137,-8.0161,-8.0145,-8.0136,-8.0128,-8.008,-8.0184,-8.0198,-8.0286,-8.0108,-8.0449,-8.0461,-8.0473,-8.0636,-8.0664,-8.0688,0,0,0,0,0,-8.0076,-8.0206,-8.0162,-8.0176,-8.0228,-8.0296,-8.0302,-8.0244,-8.0168,-8.0228,-8.0204,-8.0129,-8.0269,-8.0196,-8.021,-8.0301,-8.0443,-8.0458,-8.0472,-8.0624,-8.0659,-8.0688,0,0,0,0,0,0,-8.0232,-8.0203,-8.0154,-8.0283,-8.0293,-8.0271,-8.0344,-8.0283,-8.0314,-8.0298,-8.0224,-8.0224,-8.0336,-8.0328,-8.0247,-8.0452,-8.0342,-8.0361,-8.0453,-8.0486,-8.0512,-8.0511,-8.0113,0,0,0,0,0,-8.0282,-8.034,-8.0311,-8.0428,-8.0436,-8.039,-8.0417,-8.0372,-8.0379,-8.0382,-8.0366,-8.0375,-8.042,-8.0452,-8.0493,-8.0634,-8.063,-8.0703,-8.073,-8.0751,-8.0768,-8.0842,-8.0875,-8.0527,-8.0527,-8.0527,0,0,-8.0385,-8.0376,-8.0417,-8.0459,-8.0462,-8.0523,-8.0394,-8.0464,-8.0509,-8.0392,-8.0487,-8.0475,-8.048,-8.0602,-8.0655,-8.0599,-8.0863,-8.077,-8.0787,-8.0792,-8.0861,-8.0894,-8.0923,-8.0537,-8.0535,-8.0533,0,0,-8.0604,-8.0603,-8.0701,-8.0706,-8.0712,-8.068,-8.0704,-8.0691,-8.0679,-8.0773,-8.0687,-8.0738,-8.0819,-8.0826,-8.0841,-8.1063,-8.0995,-8.1078,-8.1215,-8.1288,-8.1316,-8.134,-8.142,-8.1449,-8.1094,-8.1095,-8.1095,0,-8.0731,-8.0821,-8.0758,-8.0835,-8.0856,-8.0754,-8.0852,-8.0859,-8.0878,-8.0894,-8.0831,-8.0931,-8.0927,-8.1049,-8.1104,-8.1119,-8.1143,-8.1079,-8.1317,-8.1341,-8.1362,-8.1437,-8.1467,-8.1105,-8.1104,-8.1103,-8.1102,0,-8.0977,-8.1041,-8.1119,-8.1141,-8.117,-8.1257,-8.1206,-8.1243,-8.1196,-8.1171,-8.1267,-8.1259,-8.1296,-8.1321,-8.1275,-8.1437,-8.1403,-8.133,-8.1218,-8.1406,-8.1476,-8.1504,-8.1119,-8.1116,-8.1113,-8.111,0,0,-8.1295,-8.1282,-8.1311,-8.132,-8.1319,-8.1367,-8.1449,-8.1486,-8.1519,-8.1535,-8.1602,-8.1673,-8.1605,-8.1622,-8.1575,-8.164,-8.1817,-8.1559,-8.1558,-8.1608,-8.1996,-8.2051,-8.2086,-8.1771,-8.1777,-8.1781,-8.1995,0,-8.1509,-8.165,-8.1595,-8.174,-8.1798,-8.1702,-8.1773,-8.178,-8.1758,-8.1804,-8.1779,-8.1831,-8.1738,-8.1747,-8.1806,-8.1783,-8.1894,-8.1767,-8.1833,-8.1836,-8.1836,-8.2122,-8.2181,-8.2384,-8.2022,-8.2027,-8.203,0,-8.1778,-8.1806,-8.1957,-8.1946,-8.1968,-8.2034,-8.2063,-8.2108,-8.2113,-8.2093,-8.2112,-8.2052,-8.213,-8.2019,-8.2126,-8.2041,-8.2064,-8.2057,-8.2063,-8.2068,-8.1945,-8.2135,-8.2447,-8.2478,-8.2072,-8.2069,-8.2066,0,-8.1996,-8.2072,-8.2172,-8.2182,-8.2171,-8.222,-8.2217,-8.2217,-8.2243,-8.2268,-8.2284,-8.2318,-8.2337,-8.2365,-8.2315,-8.2238,-8.243,-8.2314,-8.2415,-8.2417,-8.246,-8.2458,-8.2782,-8.2475,-8.2474,-8.2474,-8.2473,0,-8.2241,-8.2337,-8.227,-8.2332,-8.2436,-8.2372,-8.2477,-8.2464,-8.2464,-8.2521,-8.2439,-8.2494,-8.2424,-8.2472,-8.2433,-8.2528,-8.2537,-8.2523,-8.2511,-8.2531,-8.2533,-8.2546,-8.2531,-8.2481,-8.248,-8.2478,-8.2477,0,-8.2503,-8.2462,-8.2564,-8.2546,-8.2544,-8.2622,-8.2606,-8.2662,-8.2634,-8.2707,-8.2721,-8.2678,-8.273,-8.2683,-8.2732,-8.2706,-8.2833,-8.2801,-8.2833,-8.2824,-8.2928,-8.2919,-8.3271,-8.3315,-8.2979,-8.2983,-8.2985,0,-8.2663,-8.2735,-8.2725,-8.2757,-8.2761,-8.2814,-8.2841,-8.278,-8.281,-8.2822,-8.2877,-8.2922,-8.2955,-8.3043,-8.3016,-8.3053,-8.3022,-8.3143,-8.3027,-8.3045,-8.3025,-8.3022,-8.3029,-8.3167,-8.3171,-8.3174,-8.3177,0,-8.2951,-8.2927,-8.2969,-8.3004,-8.3038,-8.3062,-8.308,-8.3111,-8.3048,-8.3087,-8.314,-8.3166,-8.3217,-8.3263,-8.3293,-8.3288,-8.3223,-8.3213,-8.3239,-8.326,-8.3275,-8.3269,-8.2898,-8.3206,-8.3203,-8.3201,-8.3199,-8.3198,-8.3167,-8.3227,-8.3229,-8.3278,-8.3286,-8.3304,-8.3356,-8.3336,-8.3379,-8.3417,-8.3378,-8.3443,-8.3445,-8.3478,-8.3482,-8.3531,-8.348,-8.3517,-8.3527,-8.3537,-8.3553,-8.3267,-8.3536,-8.3535,-8.3534,-8.3533,-8.3533,0,-8.3451,-8.3449,-8.3495,-8.3523,-8.3562,-8.3496,-8.3513,-8.3549,-8.3608,-8.3616,-8.3651,-8.3712,-8.3756,-8.3733,-8.3771,-8.3815,-8.3786,-8.3828,-8.3824,-8.3825,-8.3595,-8.357,-8.3851,-8.3851,-8.3851,-8.3851,-8.385,-8.385,-8.3604,-8.3702,-8.3679,-8.3779,-8.3774,-8.3838,-8.3853,-8.387,-8.3876,-8.3949,-8.3986,-8.397,-8.3966,-8.4003,-8.4041,-8.4033,-8.4051,-8.4104,-8.4086,-8.3872,-8.3841,-8.3811,-8.3787,-8.4108,-8.4109,-8.431,-8.4312,-8.4314]}]]